[[{"header":{"parameterUnit":"m.s-1","parameterCategory":1,"la1":30.2991,"la2":30.254,"lo1":-89.0895,"lo2":-89.0444,"dy":0.0017,"dx":0.0017,"nx":28,"ny":28,"refTime":"2025-07-25T21:00:00:Z","depth":0,"parameterNumber":2,"parameterNumberName":"U-component_of_WINDS"},"data":[0,0,0,0,0,0,0,0,0,0,0,0,0,0,0,0,0,0,0,0,0,0,0,0,0,0,0,0,0,0,0,0,0,0,0,0,0,0,0,0,0,0,0,0,0,0,0,0,0,0,0,0,0,0,0,0,0,0,-1.0837,-1.0837,0,-1.0837,-1.0837,-1.0837,-1.0807,-1.0806,-1.0805,-1.0804,-1.0806,-1.0806,-1.0807,0,0,0,0,0,0,0,0,0,0,0,0,0,-1.0813,-1.0813,-1.0837,-1.0837,-1.0837,-1.0837,-1.0837,-1.0837,-1.0807,-1.0806,-1.0805,-1.0804,-1.0805,-1.0806,-1.0807,0,0,0,0,0,0,0,0,0,0,0,0,0,-1.0819,-1.0813,-1.0837,-1.0822,-1.082,-1.0837,-1.0837,-1.0837,-1.0807,-1.0806,-1.0805,-1.0804,-1.0805,-1.0806,-1.0807,-1.0838,0,0,-1.0811,-1.0811,0,0,0,0,0,0,0,0,-1.0819,-1.082,-1.0824,-1.0823,-1.0821,-1.082,-1.0828,-1.0837,-1.0807,-1.0812,-1.0804,-1.0803,-1.0812,-1.0812,-1.0815,-1.0838,-1.0838,-1.0811,-1.0811,-1.0812,-1.0812,0,0,0,0,0,0,0,-1.0818,-1.082,-1.0837,-1.0824,-1.0823,-1.0816,-1.0815,-1.083,-1.0819,-1.0812,-1.081,-1.081,-1.0811,-1.0814,-1.0814,-1.0838,-1.0811,-1.0812,-1.0812,-1.0813,-1.0887,-1.0888,0,0,0,0,0,0,-1.082,-1.0819,-1.0837,-1.0837,-1.0817,-1.0817,-1.0817,-1.0822,-1.0818,-1.0817,-1.0811,-1.0808,-1.0812,-1.0813,-1.0814,-1.085,-1.0812,-1.0813,-1.0814,-1.0886,-1.0887,-1.0889,0,0,0,0,0,0,-1.0819,-1.0821,-1.0837,-1.0827,-1.0829,-1.0819,-1.0825,-1.0823,-1.0826,-1.0818,-1.0816,-1.0816,-1.0811,-1.0813,-1.0832,-1.085,-1.0814,-1.0815,-1.0884,-1.0886,-1.0888,-1.0922,0,0,0,0,0,0,-1.0819,-1.0821,-1.0833,-1.0828,-1.0829,-1.0854,-1.0826,-1.0823,-1.0827,-1.0824,-1.0822,-1.082,-1.0811,-1.0831,-1.0833,-1.0851,-1.0815,-1.0882,-1.0885,-1.0887,-1.092,-1.0925,-1.093,0,0,0,0,0,-1.0818,-1.0843,-1.0833,-1.0836,-1.0843,-1.0855,-1.0856,-1.0844,-1.0829,-1.084,-1.0835,-1.082,-1.0848,-1.0833,-1.0836,-1.0854,-1.0881,-1.0884,-1.0887,-1.0917,-1.0924,-1.093,0,0,0,0,0,0,-1.085,-1.0842,-1.0831,-1.0855,-1.0856,-1.085,-1.0864,-1.0852,-1.0857,-1.0854,-1.0839,-1.0839,-1.0861,-1.0859,-1.0843,-1.0884,-1.0862,-1.0865,-1.0884,-1.089,-1.0896,-1.0896,-1.0816,0,0,0,0,0,-1.086,-1.087,-1.0862,-1.0884,-1.0885,-1.0875,-1.0879,-1.087,-1.0871,-1.0871,-1.0867,-1.0869,-1.0878,-1.0884,-1.0891,-1.0919,-1.0919,-1.0933,-1.0938,-1.0943,-1.0946,-1.0961,-1.0968,-1.0898,-1.0898,-1.0898,0,0,-1.088,-1.0877,-1.0884,-1.089,-1.089,-1.0901,-1.0875,-1.0888,-1.0897,-1.0873,-1.0891,-1.0889,-1.0889,-1.0913,-1.0924,-1.0913,-1.0965,-1.0946,-1.095,-1.0951,-1.0965,-1.0971,-1.0977,-1.09,-1.09,-1.0899,0,0,-1.0924,-1.0922,-1.094,-1.094,-1.094,-1.0933,-1.0937,-1.0933,-1.0931,-1.0948,-1.0931,-1.0941,-1.0956,-1.0958,-1.0961,-1.1005,-1.0991,-1.1007,-1.1035,-1.105,-1.1055,-1.106,-1.1076,-1.1082,-1.1011,-1.1011,-1.1011,0,-1.0949,-1.0965,-1.0951,-1.0965,-1.0969,-1.0947,-1.0966,-1.0967,-1.097,-1.0973,-1.096,-1.0979,-1.0978,-1.1002,-1.1013,-1.1016,-1.1021,-1.1008,-1.1056,-1.106,-1.1065,-1.108,-1.1086,-1.1013,-1.1013,-1.1012,-1.1012,0,-1.0997,-1.1008,-1.1023,-1.1026,-1.1031,-1.1047,-1.1036,-1.1043,-1.1033,-1.1028,-1.1046,-1.1044,-1.1051,-1.1056,-1.1047,-1.1079,-1.1073,-1.1058,-1.1036,-1.1073,-1.1088,-1.1093,-1.1016,-1.1015,-1.1014,-1.1014,0,0,-1.1061,-1.1055,-1.1061,-1.1062,-1.106,-1.1069,-1.1085,-1.1091,-1.1098,-1.11,-1.1113,-1.1127,-1.1113,-1.1117,-1.1107,-1.112,-1.1156,-1.1104,-1.1104,-1.1114,-1.1192,-1.1203,-1.121,-1.1147,-1.1148,-1.1148,-1.1192,0,-1.1103,-1.1129,-1.1117,-1.1145,-1.1156,-1.1135,-1.1149,-1.115,-1.1145,-1.1154,-1.1148,-1.1159,-1.114,-1.1142,-1.1153,-1.1149,-1.1171,-1.1145,-1.1159,-1.116,-1.116,-1.1218,-1.123,-1.1271,-1.1197,-1.1198,-1.1199,0,-1.1156,-1.1161,-1.1189,-1.1186,-1.119,-1.1202,-1.1208,-1.1216,-1.1216,-1.1212,-1.1215,-1.1203,-1.1219,-1.1196,-1.1218,-1.1201,-1.1206,-1.1204,-1.1205,-1.1207,-1.1182,-1.1221,-1.1284,-1.129,-1.1207,-1.1207,-1.1206,0,-1.1201,-1.1214,-1.1233,-1.1234,-1.123,-1.124,-1.1239,-1.1238,-1.1243,-1.1247,-1.125,-1.1257,-1.1261,-1.1266,-1.1256,-1.1241,-1.1279,-1.1256,-1.1277,-1.1277,-1.1286,-1.1286,-1.1351,-1.1289,-1.1288,-1.1288,-1.1288,0,-1.125,-1.1269,-1.1253,-1.1265,-1.1285,-1.1271,-1.1291,-1.1288,-1.1288,-1.1299,-1.1282,-1.1293,-1.1278,-1.1288,-1.128,-1.1299,-1.1301,-1.1298,-1.1296,-1.13,-1.1301,-1.1304,-1.1301,-1.129,-1.129,-1.1289,-1.1289,0,-1.1304,-1.1294,-1.1313,-1.1308,-1.1307,-1.1322,-1.1318,-1.1329,-1.1322,-1.1337,-1.1339,-1.133,-1.134,-1.1331,-1.1341,-1.1335,-1.1362,-1.1355,-1.1361,-1.136,-1.1381,-1.138,-1.1451,-1.146,-1.1391,-1.1392,-1.1392,0,-1.1336,-1.135,-1.1346,-1.1352,-1.1352,-1.1361,-1.1366,-1.1353,-1.1359,-1.136,-1.1371,-1.138,-1.1386,-1.1404,-1.1398,-1.1406,-1.14,-1.1424,-1.1401,-1.1405,-1.1401,-1.1401,-1.1402,-1.143,-1.143,-1.1431,-1.1432,0,-1.1395,-1.1389,-1.1396,-1.1402,-1.1408,-1.1412,-1.1415,-1.1421,-1.1407,-1.1414,-1.1425,-1.143,-1.144,-1.1449,-1.1455,-1.1454,-1.1441,-1.1439,-1.1444,-1.1449,-1.1452,-1.1451,-1.1375,-1.1437,-1.1437,-1.1436,-1.1436,-1.1436,-1.1439,-1.1451,-1.145,-1.1458,-1.1459,-1.1462,-1.1472,-1.1467,-1.1475,-1.1482,-1.1473,-1.1486,-1.1486,-1.1493,-1.1494,-1.1504,-1.1494,-1.1501,-1.1503,-1.1505,-1.1509,-1.145,-1.1505,-1.1505,-1.1504,-1.1504,-1.1504,0,-1.1498,-1.1496,-1.1504,-1.1508,-1.1515,-1.1501,-1.1504,-1.1511,-1.1522,-1.1523,-1.1529,-1.1541,-1.155,-1.1545,-1.1553,-1.1562,-1.1556,-1.1565,-1.1564,-1.1564,-1.1517,-1.1512,-1.1569,-1.1569,-1.1569,-1.1569,-1.1569,-1.1569,-1.1529,-1.1548,-1.1542,-1.1561,-1.1559,-1.1571,-1.1574,-1.1576,-1.1577,-1.1591,-1.1598,-1.1595,-1.1594,-1.1601,-1.1609,-1.1607,-1.1611,-1.1622,-1.1618,-1.1574,-1.1568,-1.1562,-1.1557,-1.1623,-1.1623,-1.1664,-1.1665,-1.1665]},{"header":{"parameterUnit":"m.s-1","parameterCategory":1,"la1":30.2991,"la2":30.254,"lo1":-89.0895,"lo2":-89.0444,"dy":0.0017,"dx":0.0017,"nx":28,"ny":28,"refTime":"2025-07-25T21:00:00:Z","depth":0,"parameterNumber":3,"parameterNumberName":"V-component_of_WINDS"},"data":[0,0,0,0,0,0,0,0,0,0,0,0,0,0,0,0,0,0,0,0,0,0,0,0,0,0,0,0,0,0,0,0,0,0,0,0,0,0,0,0,0,0,0,0,0,0,0,0,0,0,0,0,0,0,0,0,0,0,4.5559,4.5559,0,4.5584,4.5585,4.5585,4.5519,4.5517,4.5515,4.5513,4.5537,4.554,4.5542,0,0,0,0,0,0,0,0,0,0,0,0,0,4.545,4.5452,4.5559,4.5559,4.5559,4.5584,4.5585,4.5585,4.552,4.5517,4.5515,4.5512,4.5537,4.554,4.5543,0,0,0,0,0,0,0,0,0,0,0,0,0,4.5489,4.5453,4.5559,4.553,4.5528,4.5584,4.5585,4.5585,4.552,4.5517,4.5514,4.5511,4.5536,4.5539,4.5543,4.5628,0,0,4.5555,4.5556,0,0,0,0,0,0,0,0,4.5487,4.5493,4.5534,4.5532,4.5529,4.5546,4.5555,4.5599,4.5521,4.5523,4.5513,4.551,4.5542,4.5545,4.5557,4.5629,4.563,4.5555,4.5557,4.5559,4.556,0,0,0,0,0,0,0,4.5484,4.5491,4.5569,4.5534,4.5532,4.5515,4.5517,4.5563,4.555,4.5523,4.5518,4.5522,4.5541,4.5553,4.5557,4.5631,4.5555,4.5558,4.5561,4.5562,4.5772,4.5775,0,0,0,0,0,0,4.5485,4.5489,4.5568,4.557,4.55,4.5519,4.5521,4.5543,4.5549,4.5547,4.5525,4.5519,4.5548,4.5553,4.5558,4.5656,4.5559,4.5563,4.5565,4.5769,4.5773,4.5776,0,0,0,0,0,0,4.5483,4.5493,4.5567,4.5528,4.5536,4.5524,4.555,4.5546,4.5558,4.555,4.5547,4.554,4.5546,4.5552,4.5611,4.5656,4.5564,4.5568,4.5765,4.577,4.5774,4.5854,0,0,0,0,0,0,4.548,4.5493,4.5526,4.553,4.5539,4.5621,4.5552,4.5548,4.5565,4.5558,4.5564,4.5562,4.5544,4.5605,4.5615,4.5659,4.5571,4.5761,4.5767,4.5773,4.5848,4.5861,4.5873,0,0,0,0,0,4.5477,4.5547,4.5528,4.5538,4.558,4.5624,4.5629,4.5607,4.5569,4.5602,4.5596,4.5562,4.565,4.5612,4.5622,4.5668,4.5758,4.5765,4.5772,4.5842,4.5859,4.5873,0,0,0,0,0,0,4.5548,4.5547,4.5526,4.56,4.5612,4.5612,4.5653,4.5626,4.5649,4.5641,4.5612,4.5614,4.5678,4.5679,4.5637,4.575,4.5697,4.5707,4.5747,4.5763,4.5775,4.5773,4.5574,0,0,0,0,0,4.5573,4.561,4.5606,4.5672,4.5679,4.5665,4.5683,4.5665,4.5677,4.5682,4.5681,4.5693,4.5722,4.5743,4.577,4.5848,4.5847,4.5885,4.5898,4.5908,4.5916,4.5955,4.5971,4.58,4.58,4.58,0,0,4.5624,4.5628,4.5652,4.5686,4.5694,4.5731,4.567,4.5712,4.5739,4.5688,4.5743,4.5743,4.5754,4.5822,4.5852,4.5825,4.5964,4.5918,4.5926,4.5928,4.5965,4.5981,4.5995,4.5805,4.5804,4.5804,0,0,4.5735,4.5742,4.5797,4.5806,4.5818,4.5808,4.5821,4.5826,4.5824,4.5878,4.584,4.5872,4.5924,4.5933,4.5945,4.6059,4.6027,4.6068,4.6135,4.6173,4.6187,4.6198,4.6237,4.6251,4.6077,4.6077,4.6077,0,4.5796,4.5851,4.5828,4.5872,4.5887,4.5844,4.5897,4.5907,4.5928,4.5939,4.5909,4.5973,4.5978,4.6046,4.6074,4.6086,4.6098,4.6067,4.6187,4.6198,4.6209,4.6245,4.626,4.6082,4.6081,4.6081,4.608,0,4.5925,4.5963,4.6006,4.6027,4.6047,4.6096,4.6079,4.6102,4.6082,4.6075,4.6131,4.6135,4.6161,4.6177,4.6158,4.6242,4.6225,4.6192,4.6137,4.623,4.6264,4.6278,4.6089,4.6087,4.6086,4.6084,0,0,4.6081,4.6088,4.6104,4.6112,4.6123,4.6151,4.6198,4.6224,4.6244,4.626,4.6296,4.6342,4.6311,4.6324,4.6306,4.634,4.6427,4.6302,4.6302,4.6323,4.6518,4.6542,4.6558,4.6407,4.641,4.6412,4.6516,0,4.6189,4.6269,4.6249,4.6328,4.6362,4.6321,4.6361,4.6371,4.6366,4.6393,4.6387,4.6419,4.6376,4.6384,4.6416,4.641,4.6466,4.6402,4.644,4.6441,4.6436,4.6576,4.6602,4.67,4.653,4.6532,4.6534,0,4.6325,4.6346,4.6429,4.6432,4.6446,4.6482,4.6504,4.6531,4.6541,4.6535,4.655,4.6524,4.6569,4.6516,4.6576,4.6533,4.6547,4.6547,4.655,4.6551,4.6492,4.6579,4.6731,4.6745,4.6554,4.6553,4.6551,0,4.6428,4.6477,4.6532,4.6541,4.6547,4.6573,4.6577,4.6584,4.66,4.6619,4.6629,4.6654,4.6666,4.6685,4.6666,4.663,4.6728,4.6674,4.6723,4.6723,4.6744,4.6742,4.6898,4.6757,4.6756,4.6756,4.6756,0,4.655,4.6601,4.6578,4.6612,4.6668,4.6644,4.67,4.6699,4.6705,4.6737,4.6704,4.6734,4.6709,4.6736,4.6722,4.6773,4.678,4.6774,4.677,4.6776,4.6777,4.6784,4.6776,4.676,4.6759,4.6758,4.6758,0,4.6673,4.6661,4.6717,4.6718,4.672,4.6761,4.6761,4.6791,4.6783,4.6824,4.6832,4.682,4.6851,4.6834,4.6867,4.6857,4.6922,4.6909,4.6919,4.6914,4.6963,4.6958,4.7127,4.7147,4.6995,4.6996,4.6997,0,4.6751,4.6789,4.6794,4.6813,4.6819,4.6851,4.6867,4.6845,4.6864,4.6878,4.6906,4.6934,4.6955,4.7007,4.7,4.7024,4.701,4.7068,4.7013,4.7018,4.7008,4.7005,4.7008,4.7078,4.708,4.7081,4.7082,0,4.6889,4.688,4.6906,4.6929,4.695,4.6968,4.6982,4.6999,4.6977,4.7,4.7031,4.7048,4.708,4.7108,4.7129,4.7131,4.7103,4.71,4.7112,4.7118,4.7121,4.7118,4.6946,4.7095,4.7094,4.7093,4.7092,4.7092,4.699,4.7022,4.703,4.7059,4.7068,4.7082,4.711,4.7106,4.7131,4.7156,4.7142,4.7178,4.7186,4.721,4.7217,4.7244,4.7221,4.7239,4.7243,4.7247,4.7253,4.7119,4.7248,4.7248,4.7247,4.7247,4.7247,0,4.7125,4.7128,4.7155,4.7176,4.7199,4.7171,4.7185,4.7206,4.7238,4.7248,4.727,4.7305,4.7331,4.7327,4.7351,4.7373,4.7361,4.738,4.7377,4.7378,4.7273,4.726,4.739,4.739,4.739,4.739,4.739,4.739,4.7197,4.7248,4.7241,4.7296,4.7298,4.7334,4.7344,4.7356,4.7363,4.7404,4.7426,4.7423,4.7427,4.7451,4.7474,4.7471,4.7481,4.7505,4.7498,4.74,4.7385,4.7372,4.7359,4.7507,4.7508,4.7599,4.76,4.7601]}]]